Regional Weather Roundup
Issued by NWS Charleston, WV

Home | Current Version | Previous Version | Text Only | Print | Product List | Glossary Off
Versions: 1 2 3 4 5 6 7 8 9 10 11 12 13 14 15 16 17 18 19 20 21 22 23 24 25 26 27 28 29 30 31 32 33 34 35 36 37 38 39 40 41 42 43 44 45 46 47 48 49 50

000
ASUS41 KRLX 031810
RWRRLX
West Virginia Regional Weather Roundup
National Weather Service Charleston WV
100 PM EST TUE MAR 03 2015

Note: "fair" indicates few or no clouds below 12,000 feet with no
significant weather and/or obstructions to visibility.

WVZ003-031900-
Northern Panhandle of West Virginia

CITY           SKY/WX    TMP DP  RH WIND       PRES   REMARKS
WHEELING       CLOUDY    37  22  54 S9        29.92F
$$

WVZ009-031900-
Northwest West Virginia

CITY           SKY/WX    TMP DP  RH WIND       PRES   REMARKS
PARKERSBURG    LGT RAIN  38  30  73 S7        29.99F
$$

WVZ006-031900-
Western West Virginia

CITY           SKY/WX    TMP DP  RH WIND       PRES   REMARKS
HUNTINGTON     LGT RAIN  40  37  89 SW3       29.97F
$$

WVZ015-031900-
West Central West Virginia

CITY           SKY/WX    TMP DP  RH WIND       PRES   REMARKS
CHARLESTON     CLOUDY    48  41  76 S9        29.99F
$$

WVZ022-031-031900-
North Central West Virginia

CITY           SKY/WX    TMP DP  RH WIND       PRES   REMARKS
CLARKSBURG     CLOUDY    39  28  64 CALM      29.98F
MORGANTOWN     CLOUDY    44  30  57 SE7       29.98F
$$

WVZ025-035-042-045-031900-
Southern West Virginia

CITY           SKY/WX    TMP DP  RH WIND       PRES   REMARKS
BECKLEY        CLOUDY    38  31  76 SE13G20   30.06F
LOGAN          CLOUDY    46  41  81 S10       29.99S
BLUEFIELD      CLOUDY    44  33  65 SE7G17    30.09F
LEWISBURG      FOG       35  33  94 N6        30.13F VSB 1
$$

WVZ047-031900-
Northern Mountains of West Virginia

CITY           SKY/WX    TMP DP  RH WIND       PRES   REMARKS
ELKINS         CLOUDY    41  32  70 S9        30.02F
$$

WVZ052-031900-
Eastern Panhandle of West Virginia

CITY           SKY/WX    TMP DP  RH WIND       PRES   REMARKS
MARTINSBURG    CLOUDY    33  16  49 S12       30.22F
PETERSBURG     CLOUDY    43  26  51 S14       30.11F
$$



USA.gov is the U.S. government's official web portal to all federal, state and local government web resources and services.